Change the Weather History Date:

Saturday, March 2, 2013

  Actual Average Record
Temperature  
Mean Temperature 24 °F -  
Max Temperature 27 °F 41 °F 67 °F (1954)
Min Temperature 21 °F 23 °F -4 °F (1980)
Degree Days  
Heating Degree Days 41    
Moisture  
Dew Point 19 °F    
Average Humidity 79    
Maximum Humidity 86    
Minimum Humidity 69    
Precipitation  
Precipitation 0.00 in - - ()
Sea Level Pressure  
Sea Level Pressure 29.92 in    
Wind  
Wind Speed 10 mph (NW)    
Max Wind Speed 13 mph    
Max Gust Speed -    
Visibility 7 miles    
Events Snow    
Averages and records for this station are not official NWS values.
T = Trace of Precipitation, MM = Missing Value Source: NWS Daily Summary

Daily Weather History Graph

Daily Weather History Graph

Search for Another Location

Airport or City:

Trip Planner

Search our weather history database for the weather conditions in past years. The results will help you decide how hot, cold, wet, or windy it might be!

Date:

Astronomy

Mar. 02, 2013 Rise Set
Actual Time 6:44 AM EST 6:02 PM EST
Civil Twilight 6:16 AM EST 6:30 PM EST
Nautical Twilight 5:43 AM EST 7:02 PM EST
Astronomical Twilight 5:10 AM EST 7:35 PM EST
Moon 11:47 PM EST 9:03 AM EST
Length of Visible Light 12h 14m
Length of Day
11h 17m
Waning Gibbous, 74% of the Moon is Illuminated
Mar 2
Waning Gibbous
Mar 4
Last Quarter
Mar 11
New
Mar 19
First Quarter
Mar 27
Full

Hourly Weather History & Observations

Time (EST) Temp. Windchill Dew Point Humidity Pressure Visibility Wind Dir Wind Speed Gust Speed Precip Events Conditions
1:54 AM 27.0 °F 18.0 °F 21.9 °F 81% 29.95 in 5.0 mi NNW 9.2 mph - 0.00 in Snow Light Snow
2:54 AM 26.1 °F 15.6 °F 21.0 °F 81% 29.94 in 10.0 mi NW 11.5 mph - 0.00 in   Overcast
3:54 AM 26.1 °F 15.6 °F 21.0 °F 81% 29.94 in 10.0 mi NW 11.5 mph - 0.00 in   Overcast
4:54 AM 25.0 °F 15.5 °F 21.0 °F 85% 29.95 in 10.0 mi NNW 9.2 mph - N/A   Overcast
5:54 AM 24.1 °F 15.2 °F 19.9 °F 84% 29.95 in 6.0 mi NNW 8.1 mph - 0.00 in   Overcast
6:54 AM 24.1 °F 12.5 °F 19.0 °F 81% 29.96 in 8.0 mi NW 12.7 mph - N/A   Overcast
7:54 AM 23.0 °F 11.7 °F 18.0 °F 81% 29.97 in 10.0 mi NNW 11.5 mph - 0.00 in   Overcast
8:54 AM 21.9 °F 11.0 °F 17.1 °F 82% 29.97 in 7.0 mi NNW 10.4 mph - N/A   Overcast
9:54 AM 23.0 °F 12.4 °F 17.1 °F 78% 29.97 in 3.0 mi NNW 10.4 mph - 0.00 in Snow Light Snow
10:54 AM 24.1 °F 14.4 °F 17.1 °F 75% 29.96 in 10.0 mi NNW 9.2 mph - 0.00 in   Overcast
11:54 AM 25.0 °F 14.2 °F 18.0 °F 75% 29.95 in 10.0 mi NW 11.5 mph - N/A   Overcast
12:38 PM 26.6 °F 16.2 °F 19.4 °F 74% 29.88 in 10.0 mi NNW 11.5 mph - N/A   Overcast
12:54 PM 26.1 °F 16.2 °F 18.0 °F 71% 29.93 in 9.0 mi NNW 10.4 mph - N/A   Overcast
1:09 PM 26.6 °F 17.5 °F 17.6 °F 69% 29.87 in 9.0 mi NNW 9.2 mph - 0.00 in   Overcast
1:54 PM 26.1 °F 15.0 °F 19.0 °F 75% 29.92 in 8.0 mi North 12.7 mph - 0.00 in   Overcast
2:54 PM 25.0 °F 14.8 °F 19.0 °F 78% 29.91 in 7.0 mi NNW 10.4 mph - 0.00 in Snow Light Snow
3:50 PM 24.8 °F 14.6 °F 19.4 °F 80% 29.86 in 1.8 mi NNW 10.4 mph - 0.00 in Snow Light Snow
3:54 PM 25.0 °F 16.3 °F 19.9 °F 81% 29.91 in 1.5 mi NNW 8.1 mph - 0.00 in Snow Light Snow
4:43 PM 24.8 °F 16.1 °F 21.2 °F 86% 29.86 in 2.0 mi NNW 8.1 mph - 0.00 in Snow Light Snow
4:54 PM 25.0 °F 16.3 °F 19.9 °F 81% 29.92 in 2.0 mi NW 8.1 mph - 0.00 in Snow Light Snow
5:16 PM 24.8 °F 16.1 °F 19.4 °F 80% 29.87 in 3.0 mi NW 8.1 mph - 0.00 in Snow Light Snow
5:54 PM 25.0 °F 18.1 °F 19.0 °F 78% 29.93 in 3.0 mi WNW 5.8 mph - 0.00 in Snow Light Snow
6:54 PM 25.0 °F 18.1 °F 19.0 °F 78% 29.94 in 5.0 mi NW 5.8 mph - 0.00 in Snow Light Snow
7:54 PM 25.0 °F 16.3 °F 19.0 °F 78% 29.93 in 7.0 mi WNW 8.1 mph - 0.00 in Snow Light Snow
8:11 PM 24.8 °F 17.9 °F 19.4 °F 80% 29.87 in 7.0 mi NW 5.8 mph - 0.00 in Snow Light Snow
8:54 PM 25.0 °F 17.1 °F 18.0 °F 75% 29.93 in 9.0 mi WNW 6.9 mph - 0.00 in Snow Light Snow
9:26 PM 24.8 °F 15.3 °F 17.6 °F 74% 29.87 in 9.0 mi NW 9.2 mph - 0.00 in   Overcast
9:54 PM 25.0 °F 18.1 °F 19.0 °F 78% 29.93 in 10.0 mi NNW 5.8 mph - 0.00 in   Overcast
10:06 PM 24.8 °F 16.9 °F 19.4 °F 80% 29.87 in 10.0 mi NNW 6.9 mph - N/A   Overcast
10:54 PM 25.0 °F 16.3 °F 19.0 °F 78% 29.91 in 10.0 mi NNW 8.1 mph - N/A   Overcast
11:04 PM 24.8 °F 16.1 °F 17.6 °F 74% 29.86 in 10.0 mi NW 8.1 mph - N/A   Overcast
11:54 PM 24.1 °F 17.0 °F 19.0 °F 81% 29.90 in 4.0 mi NW 5.8 mph - 0.00 in Snow Light Snow